STARLINK-31750, 59552

Orbit data source: Space-Track

STARLINK-31750, 59552 is a payload satellite owned by SpaceX/Seattle (US) in LEO that was launched on Thu, 18 Apr 2024 UTC via an FALCON 9 launch vehicle from the Air Force Eastern Test Range (AFETR). Payload-class satellites include a variety of spacecraft equipped with specific instruments for various scientific and technological missions. These include communications satellites like Starlink; space stations such as the ISS; scientific satellites like the Hubble; Earth observation satellites from companies like Planet Labs, Umbra, and HawkEye 360; GPS; miniature CubeSats for education and research; and military/defense satellites.

Loading next visibility...
Identifier
59552, 2024-074U
Orbit
LEO
Country
Flag of USUS
Related business
Manufacturer
SpaceX/Seattle
Mission
Operational Commercial Communications
Bus & Motor
STARLINK V2M, Unknown motor
Mass
730 kg wet, ~700 kg dry
Launch date (UTC)
2024-04-18 (2 years ago)
Launch vehicle
FALCON 9
Launch site
Air Force Eastern Test Range (AFETR)
Object type
Payload
Rocket body
Debris
Shape & HBR
Box + 2 Pan, 17.7 m
Radar Cross Section
33.884 m², Large (>1 m²)

Expand to show TLE details & history
Last TLE update: 2 days ago

TLE from 2 days ago
0 STARLINK-31750
1 59552U 24074U   26171.34403125  .00000117  00000-0  13779-4 0  9992
2 59552  43.0031 123.8114 0001491 276.1206  83.9476 15.27576908121717
Epoch: 2026-06-20T08:15Z
TLE epoch observation values (Epoch: 2026-06-20T08:15:24.300Z)
Latitude
0.00002°
Longitude
91.40016°
Altitude
482.726 km
Speed
7.626 km/s
True Right ascension
08h 15m 14s
True Declination
0° 00' 00"
Sunlit
Object was in daylight at epoch
Visualization orbit readout
Latitude
Unknown
Longitude
Unknown
Altitude
Unknown
Speed
Unknown
Apparent Right ascension
Unknown
Apparent Declination
Unknown
Sunlit
N/A
Visualization observer readout
Local Sidereal Time
21:24:29
Azimuth
Unknown
Elevation
Unknown
Doppler factor
Unknown
Orbital elements
Apogee altitude
486.026 km
Perigee altitude
483.98 km
Semi-major axis
6,863.14 km
Eccentricity
0.00015
Inclination
43.0031°
RAAN
123.8114°
Arg. of periapsis
276.1206°
True anomaly
83.96459°
Mean anomaly
83.9476°
Eccentric anomaly
83.9561°
Mean motion
3.81732 °/min
Orbital period
94.31 mins
BSTAR
0.000013779
Loading maneuver chart data...
Computing Atmospheric mass density...
Loading historical data...
Loading historical data...
Loading historical data...
Loading historical data...
Loading historical data...
Loading historical data...
Loading historical data...

Documentation

Showing up to 5 results
|